Weather History for Eagle Creek, IN

Change the Weather History Date:

Monday, October 8, 2012

  Actual Average Record
Temperature  
Mean Temperature 43 °F 57 °F  
Max Temperature 54 °F - 99 °F (2014)
Min Temperature 31 °F - 31 °F (2012)
Degree Days  
Heating Degree Days 22 8  
Month to date heating degree days 90 57  
Since 1 July heating degree days 191 118  
Cooling Degree Days 0 1  
Month to date cooling degree days 0 8  
Year to date cooling degree days 1338 1051  
Moisture  
Dew Point 31 °F    
Average Humidity 67    
Maximum Humidity 96    
Minimum Humidity 38    
Precipitation  
Precipitation 0.00 in 0.11 in 0.73 in (1999)
Month to date precipitation 1.95 0.83  
Year to date precipitation 31.21 31.73  
Sea Level Pressure  
Sea Level Pressure 30.19 in    
Wind  
Wind Speed 2 mph (South)    
Max Wind Speed 16 mph    
Max Gust Speed 0 mph    
Visibility 10 miles    
Events Rain    
T = Trace of Precipitation, MM = Missing Value Source: NWS Daily Summary

Daily Weather History Graph

Daily Weather History Graph

Search for Another Location

Airport:

Trip Planner

Search our weather history database for the weather conditions in past years. The results will help you decide how hot, cold, wet, or windy it might be!

Date:

Astronomy

Oct. 08, 2012 Rise Set
Actual Time 7:48 AM EDT 7:15 PM EDT
Civil Twilight 7:21 AM EDT 7:42 PM EDT
Nautical Twilight 6:50 AM EDT 8:13 PM EDT
Astronomical Twilight 6:19 AM EDT 8:45 PM EDT
Moon 12:28 AM EDT (10/8) 3:04 PM EDT (10/8)
Length of Visible Light 12h 20m
Length of Day
11h 26m
Waning Gibbous, 46% of the Moon is Illuminated
Oct 8
Waning Gibbous
Oct 15
New
Oct 21
First Quarter
Oct 29
Full
Nov 6
Last Quarter

Hourly Weather History & Observations

Time (EDT) Temp. Windchill Dew Point Humidity Pressure Visibility Wind Dir Wind Speed Gust Speed Precip Events Conditions
12:53 AM 34.0 °F - 32.0 °F 92% 30.21 in 10.0 mi Calm Calm - N/A   Clear
1:53 AM 33.1 °F - 30.9 °F 92% 30.21 in 10.0 mi Calm Calm - N/A   Clear
2:53 AM 34.0 °F - 32.0 °F 92% 30.22 in 10.0 mi Calm Calm - 0.00 in   Clear
3:53 AM 33.1 °F - 30.9 °F 92% 30.22 in 10.0 mi Calm Calm - 0.00 in Rain Light Rain
4:53 AM 32.0 °F - 30.0 °F 92% 30.21 in 10.0 mi Calm Calm - 0.00 in   Clear
5:53 AM 32.0 °F - 28.9 °F 88% 30.22 in 9.0 mi Calm Calm - N/A   Clear
6:53 AM 32.0 °F - 30.0 °F 92% 30.23 in 8.0 mi Calm Calm - 0.00 in   Clear
7:53 AM 30.9 °F - 28.9 °F 92% 30.23 in 6.0 mi Calm Calm - 0.00 in   Clear
8:53 AM 35.1 °F - 33.1 °F 92% 30.24 in 10.0 mi Calm Calm - 0.00 in Rain Light Rain
9:53 AM 39.9 °F 37.8 °F 34.0 °F 79% 30.26 in 10.0 mi South 3.5 mph - 0.00 in   Clear
10:53 AM 45.0 °F 41.2 °F 30.9 °F 58% 30.26 in 10.0 mi South 6.9 mph - N/A   Clear
11:53 AM 48.9 °F - 30.0 °F 48% 30.25 in 10.0 mi SSW 9.2 mph - N/A   Unknown
12:53 PM 48.9 °F - 28.0 °F 44% 30.22 in 10.0 mi Variable 6.9 mph - N/A   Clear
1:53 PM 52.0 °F - 28.9 °F 41% 30.20 in 10.0 mi Calm Calm - N/A   Clear
2:53 PM 53.1 °F - 28.9 °F 40% 30.17 in 10.0 mi Variable 5.8 mph - N/A   Clear
3:53 PM 53.1 °F - 28.9 °F 40% 30.16 in 10.0 mi SSE 6.9 mph - N/A   Clear
4:53 PM 54.0 °F - 28.0 °F 37% 30.14 in 10.0 mi Calm Calm - N/A   Clear
5:53 PM 53.1 °F - 28.9 °F 40% 30.12 in 10.0 mi Variable 4.6 mph - N/A   Clear
6:53 PM 51.1 °F - 28.9 °F 43% 30.13 in 10.0 mi SSW 4.6 mph - N/A   Clear
8:53 PM 44.1 °F - 34.0 °F 68% 30.14 in 10.0 mi Calm Calm - N/A   Clear
9:53 PM 42.1 °F - 34.0 °F 73% 30.15 in 10.0 mi Calm Calm - N/A   Clear
10:53 PM 41.0 °F - 34.0 °F 76% 30.14 in 10.0 mi Calm Calm - N/A   Clear
11:53 PM 39.9 °F - 33.1 °F 77% 30.14 in 10.0 mi Calm Calm - N/A   Clear